Location: Étouvelles
(49.5207°N, 3.5808°E)
Time: 00:21:32
(UTC+00:00)

Cosmos 540 Rocket - Pass Details

Date: 26 September 2023
Orbit: 737 x 752 km, 74.1° (Epoch: 03 December)

Event Time Altitude Azimuth Distance (km) Brightness Sun altitude
Rises 20:24:35 0° 342° (NNW) 3,184 7.4 -26.9°
Reaches altitude 10° 20:27:21 10° 356° (N) 2,258 6.4 -27.2°
Enters shadow 20:30:23 23° 30° (NNE) 1,547 5.1 -27.6°
